Wetterdaten: Freitag, 23.10.2015
Datum Zeit Auen-Temp. Temp gefhlt Luftfeuchte Luftdruck Regen Wind Richtung Richtung Taupunkt Windben
23.10.2015 00:00 6,7 C 6,7 C 78 % 1020,9 hPa 0,0 mm 0,8 km/h (0 Bft) W 270 3,1 C 2,8 km/h (1 Bft)
23.10.2015 00:05 6,7 C 6,7 C 79 % 1020,9 hPa 0,0 mm 0,5 km/h (0 Bft) W-NW 292 3,3 C 0,0 km/h (0 Bft)
23.10.2015 00:10 6,7 C 6,6 C 79 % 1020,8 hPa 0,0 mm 0,0 km/h (0 Bft) S-SO 157 3,3 C 0,0 km/h (0 Bft)
23.10.2015 00:15 6,7 C 6,6 C 79 % 1020,8 hPa 0,0 mm 1,0 km/h (0 Bft) SW 225 3,3 C 3,6 km/h (1 Bft)
23.10.2015 00:20 6,7 C 6,6 C 79 % 1020,8 hPa 0,0 mm 1,6 km/h (1 Bft) W 270 3,3 C 0,0 km/h (0 Bft)
23.10.2015 00:25 6,7 C 6,7 C 80 % 1020,8 hPa 0,0 mm 1,6 km/h (1 Bft) W 270 3,5 C 3,9 km/h (1 Bft)
23.10.2015 00:30 6,7 C 6,7 C 79 % 1020,9 hPa 0,0 mm 0,5 km/h (0 Bft) S-SO 157 3,3 C 5,4 km/h (1 Bft)
23.10.2015 00:35 6,7 C 6,7 C 80 % 1020,9 hPa 0,0 mm 0,3 km/h (0 Bft) SW 225 3,5 C 0,0 km/h (0 Bft)
23.10.2015 00:40 6,7 C 6,7 C 80 % 1020,9 hPa 0,0 mm 0,0 km/h (0 Bft) SW 225 3,5 C 3,1 km/h (1 Bft)
23.10.2015 00:45 6,7 C 6,8 C 79 % 1020,9 hPa 0,0 mm 1,0 km/h (0 Bft) SO 135 3,3 C 2,8 km/h (1 Bft)
23.10.2015 00:50 6,8 C 6,8 C 81 % 1020,8 hPa 0,0 mm 1,6 km/h (1 Bft) S 180 3,8 C 0,0 km/h (0 Bft)
23.10.2015 00:55 6,9 C 7,0 C 79 % 1020,8 hPa 0,0 mm 2,3 km/h (1 Bft) SW 225 3,5 C 6,0 km/h (2 Bft)
23.10.2015 01:00 7,0 C 7,0 C 80 % 1020,8 hPa 0,0 mm 3,4 km/h (1 Bft) SW 225 3,8 C 6,7 km/h (2 Bft)
23.10.2015 01:05 7,1 C 7,1 C 79 % 1020,8 hPa 0,0 mm 4,9 km/h (1 Bft) SW 225 3,7 C 6,0 km/h (2 Bft)
23.10.2015 01:10 7,2 C 7,2 C 80 % 1020,9 hPa 0,0 mm 5,7 km/h (1 Bft) S 180 4,0 C 8,8 km/h (2 Bft)
23.10.2015 01:15 7,1 C 7,1 C 80 % 1020,9 hPa 0,0 mm 4,9 km/h (1 Bft) W-SW 247 3,9 C 10,4 km/h (2 Bft)
23.10.2015 01:20 7,2 C 7,2 C 80 % 1020,9 hPa 0,0 mm 4,9 km/h (1 Bft) W 270 4,0 C 12,4 km/h (3 Bft)
23.10.2015 01:25 7,2 C 7,2 C 80 % 1020,9 hPa 0,0 mm 6,0 km/h (2 Bft) SW 225 4,0 C 4,1 km/h (1 Bft)
23.10.2015 01:30 7,2 C 7,2 C 80 % 1021,1 hPa 0,0 mm 5,2 km/h (1 Bft) W 270 4,0 C 5,7 km/h (1 Bft)
23.10.2015 01:35 7,2 C 7,2 C 79 % 1021,1 hPa 0,0 mm 3,4 km/h (1 Bft) W-SW 247 3,8 C 0,0 km/h (0 Bft)
23.10.2015 01:40 7,1 C 7,2 C 79 % 1021,1 hPa 0,0 mm 2,1 km/h (1 Bft) SW 225 3,7 C 6,0 km/h (2 Bft)
23.10.2015 01:45 7,2 C 7,2 C 79 % 1021,1 hPa 0,0 mm 3,1 km/h (1 Bft) W-SW 247 3,8 C 6,0 km/h (2 Bft)
23.10.2015 01:50 7,2 C 7,2 C 79 % 1021,1 hPa 0,0 mm 3,9 km/h (1 Bft) W-SW 247 3,8 C 3,4 km/h (1 Bft)
23.10.2015 01:55 7,2 C 7,2 C 79 % 1021,1 hPa 0,0 mm 2,3 km/h (1 Bft) W-SW 247 3,8 C 0,0 km/h (0 Bft)
23.10.2015 02:00 7,2 C 7,2 C 79 % 1021,1 hPa 0,0 mm 1,0 km/h (0 Bft) SW 225 3,8 C 0,0 km/h (0 Bft)
23.10.2015 02:05 7,2 C 7,2 C 79 % 1021,1 hPa 0,0 mm 0,3 km/h (0 Bft) N-NW 337 3,8 C 2,6 km/h (1 Bft)
23.10.2015 02:10 7,2 C 7,2 C 79 % 1021,2 hPa 0,0 mm 0,3 km/h (0 Bft) W-SW 247 3,8 C 0,0 km/h (0 Bft)
23.10.2015 02:15 7,3 C 7,3 C 79 % 1021,2 hPa 0,0 mm 2,1 km/h (1 Bft) W 270 3,9 C 6,7 km/h (2 Bft)
23.10.2015 02:19 7,4 C 7,3 C 79 % 1021,2 hPa 0,0 mm 2,8 km/h (1 Bft) W-NW 292 4,0 C 4,9 km/h (1 Bft)
23.10.2015 02:25 7,4 C 7,4 C 79 % 1021,2 hPa 0,0 mm 3,1 km/h (1 Bft) W-SW 247 4,0 C 3,4 km/h (1 Bft)
23.10.2015 02:30 7,4 C 7,4 C 79 % 1021,2 hPa 0,0 mm 2,3 km/h (1 Bft) N-NW 337 4,0 C 0,0 km/h (0 Bft)
23.10.2015 02:35 7,3 C 7,3 C 79 % 1021,2 hPa 0,0 mm 1,6 km/h (1 Bft) NW 315 3,9 C 7,8 km/h (2 Bft)
23.10.2015 02:40 7,4 C 7,4 C 79 % 1021,2 hPa 0,0 mm 1,3 km/h (1 Bft) W-NW 292 4,0 C 3,6 km/h (1 Bft)
23.10.2015 02:45 7,4 C 7,4 C 79 % 1021,2 hPa 0,0 mm 2,1 km/h (1 Bft) W-SW 247 4,0 C 6,2 km/h (2 Bft)
23.10.2015 02:50 7,4 C 7,3 C 80 % 1021,4 hPa 0,0 mm 1,8 km/h (1 Bft) W-SW 247 4,2 C 4,7 km/h (1 Bft)
23.10.2015 02:55 7,4 C 7,4 C 80 % 1021,4 hPa 0,0 mm 3,1 km/h (1 Bft) W 270 4,2 C 0,0 km/h (0 Bft)
23.10.2015 03:00 7,4 C 7,4 C 80 % 1021,4 hPa 0,0 mm 3,1 km/h (1 Bft) W-NW 292 4,2 C 6,0 km/h (2 Bft)
23.10.2015 03:05 7,4 C 7,4 C 80 % 1021,4 hPa 0,0 mm 1,6 km/h (1 Bft) N-NO 22 4,2 C 0,0 km/h (0 Bft)
23.10.2015 03:10 7,4 C 7,4 C 80 % 1021,4 hPa 0,0 mm 1,3 km/h (1 Bft) W 270 4,2 C 0,0 km/h (0 Bft)
23.10.2015 03:15 7,4 C 7,3 C 80 % 1021,4 hPa 0,0 mm 1,8 km/h (1 Bft) W-SW 247 4,2 C 2,8 km/h (1 Bft)
23.10.2015 03:20 7,3 C 7,3 C 80 % 1021,4 hPa 0,0 mm 2,3 km/h (1 Bft) W-SW 247 4,1 C 4,1 km/h (1 Bft)
23.10.2015 03:25 7,3 C 7,3 C 80 % 1021,4 hPa 0,0 mm 1,6 km/h (1 Bft) W-NW 292 4,1 C 3,9 km/h (1 Bft)
23.10.2015 03:30 7,3 C 7,3 C 80 % 1021,4 hPa 0,0 mm 1,3 km/h (1 Bft) W 270 4,1 C 3,4 km/h (1 Bft)
23.10.2015 03:35 7,2 C 7,2 C 80 % 1021,4 hPa 0,0 mm 1,8 km/h (1 Bft) S 180 4,0 C 5,2 km/h (1 Bft)
23.10.2015 03:40 7,3 C 7,2 C 80 % 1021,4 hPa 0,0 mm 2,1 km/h (1 Bft) W-NW 292 4,1 C 3,4 km/h (1 Bft)
23.10.2015 03:45 7,3 C 7,2 C 80 % 1021,4 hPa 0,0 mm 2,1 km/h (1 Bft) W-SW 247 4,1 C 4,1 km/h (1 Bft)
23.10.2015 03:50 7,3 C 7,3 C 80 % 1021,5 hPa 0,0 mm 1,0 km/h (0 Bft) W 270 4,1 C 0,0 km/h (0 Bft)
23.10.2015 03:55 7,3 C 7,3 C 81 % 1021,5 hPa 0,0 mm 0,3 km/h (0 Bft) SW 225 4,3 C 0,0 km/h (0 Bft)
23.10.2015 04:00 7,3 C 7,3 C 81 % 1021,5 hPa 0,0 mm 0,8 km/h (0 Bft) W-SW 247 4,3 C 4,4 km/h (1 Bft)
23.10.2015 04:05 7,3 C 7,3 C 81 % 1021,5 hPa 0,0 mm 0,8 km/h (0 Bft) W-SW 247 4,3 C 0,0 km/h (0 Bft)
23.10.2015 04:10 7,3 C 7,3 C 81 % 1021,5 hPa 0,0 mm 0,8 km/h (0 Bft) NW 315 4,3 C 0,0 km/h (0 Bft)
23.10.2015 04:15 7,2 C 7,2 C 81 % 1021,5 hPa 0,0 mm 0,3 km/h (0 Bft) NW 315 4,2 C 0,0 km/h (0 Bft)
23.10.2015 04:20 7,2 C 7,2 C 81 % 1021,5 hPa 0,0 mm 0,0 km/h (0 Bft) NW 315 4,2 C 0,0 km/h (0 Bft)
23.10.2015 04:25 7,2 C 7,2 C 82 % 1021,5 hPa 0,0 mm 0,3 km/h (0 Bft) SW 225 4,3 C 3,6 km/h (1 Bft)
23.10.2015 04:30 7,2 C 7,2 C 82 % 1021,5 hPa 0,0 mm 0,3 km/h (0 Bft) S 180 4,3 C 0,0 km/h (0 Bft)
23.10.2015 04:35 7,2 C 7,2 C 82 % 1021,5 hPa 0,0 mm 0,5 km/h (0 Bft) S-SW 202 4,3 C 3,4 km/h (1 Bft)
23.10.2015 04:40 7,2 C 7,2 C 82 % 1021,5 hPa 0,0 mm 0,3 km/h (0 Bft) S 180 4,3 C 0,0 km/h (0 Bft)
23.10.2015 04:45 7,2 C 7,2 C 82 % 1021,5 hPa 0,0 mm 0,3 km/h (0 Bft) W-SW 247 4,3 C 0,0 km/h (0 Bft)
23.10.2015 04:50 7,1 C 7,1 C 82 % 1021,8 hPa 0,0 mm 0,0 km/h (0 Bft) S 180 4,2 C 0,0 km/h (0 Bft)
23.10.2015 04:55 7,1 C 7,1 C 82 % 1021,8 hPa 0,0 mm 0,0 km/h (0 Bft) S 180 4,2 C 0,0 km/h (0 Bft)
23.10.2015 05:00 7,1 C 7,1 C 83 % 1021,8 hPa 0,0 mm 0,0 km/h (0 Bft) S 180 4,4 C 0,0 km/h (0 Bft)
23.10.2015 05:05 7,1 C 7,1 C 83 % 1021,8 hPa 0,0 mm 0,0 km/h (0 Bft) S 180 4,4 C 0,0 km/h (0 Bft)
23.10.2015 05:10 7,1 C 7,1 C 83 % 1021,7 hPa 0,0 mm 0,0 km/h (0 Bft) S 180 4,4 C 0,0 km/h (0 Bft)
23.10.2015 05:15 7,1 C 7,1 C 83 % 1021,7 hPa 0,0 mm 0,3 km/h (0 Bft) SW 225 4,4 C 4,1 km/h (1 Bft)
23.10.2015 05:20 7,2 C 7,2 C 83 % 1021,7 hPa 0,0 mm 1,3 km/h (1 Bft) S 180 4,5 C 4,9 km/h (1 Bft)
23.10.2015 05:25 7,2 C 7,1 C 83 % 1021,7 hPa 0,0 mm 2,8 km/h (1 Bft) SW 225 4,5 C 3,9 km/h (1 Bft)
23.10.2015 05:30 7,2 C 7,1 C 83 % 1021,8 hPa 0,0 mm 2,1 km/h (1 Bft) W-SW 247 4,5 C 0,0 km/h (0 Bft)
23.10.2015 05:35 7,1 C 7,0 C 83 % 1021,8 hPa 0,0 mm 0,5 km/h (0 Bft) W 270 4,4 C 0,0 km/h (0 Bft)
23.10.2015 05:40 7,1 C 7,0 C 83 % 1021,8 hPa 0,0 mm 0,0 km/h (0 Bft) W 270 4,4 C 0,0 km/h (0 Bft)
23.10.2015 05:45 7,1 C 7,0 C 84 % 1021,8 hPa 0,0 mm 0,0 km/h (0 Bft) W 270 4,6 C 0,0 km/h (0 Bft)
23.10.2015 05:50 7,1 C 7,0 C 84 % 1022,0 hPa 0,0 mm 0,0 km/h (0 Bft) W 270 4,6 C 0,0 km/h (0 Bft)
23.10.2015 05:55 7,0 C 6,9 C 84 % 1022,0 hPa 0,0 mm 0,0 km/h (0 Bft) W 270 4,5 C 0,0 km/h (0 Bft)
23.10.2015 06:00 7,0 C 6,9 C 84 % 1022,0 hPa 0,0 mm 0,0 km/h (0 Bft) W 270 4,5 C 0,0 km/h (0 Bft)
23.10.2015 06:05 7,0 C 6,9 C 84 % 1022,0 hPa 0,0 mm 0,0 km/h (0 Bft) W 270 4,5 C 0,0 km/h (0 Bft)
23.10.2015 06:10 7,0 C 6,9 C 84 % 1021,9 hPa 0,0 mm 0,0 km/h (0 Bft) SW 225 4,5 C 0,0 km/h (0 Bft)
23.10.2015 06:15 7,0 C 7,0 C 84 % 1021,9 hPa 0,0 mm 0,0 km/h (0 Bft) S 180 4,5 C 0,0 km/h (0 Bft)
23.10.2015 06:20 7,0 C 7,0 C 85 % 1021,9 hPa 0,0 mm 0,0 km/h (0 Bft) S 180 4,7 C 0,0 km/h (0 Bft)
23.10.2015 06:25 7,0 C 6,9 C 85 % 1021,9 hPa 0,0 mm 0,0 km/h (0 Bft) W 270 4,7 C 0,0 km/h (0 Bft)
23.10.2015 06:30 7,0 C 6,9 C 85 % 1022,0 hPa 0,0 mm 0,0 km/h (0 Bft) W-SW 247 4,7 C 0,0 km/h (0 Bft)
23.10.2015 06:35 7,0 C 6,9 C 85 % 1022,0 hPa 0,0 mm 0,3 km/h (0 Bft) W-SW 247 4,7 C 0,0 km/h (0 Bft)
23.10.2015 06:40 7,0 C 6,9 C 85 % 1022,0 hPa 0,0 mm 1,0 km/h (0 Bft) SW 225 4,7 C 6,0 km/h (2 Bft)
23.10.2015 06:45 7,0 C 6,9 C 85 % 1022,0 hPa 0,0 mm 2,3 km/h (1 Bft) W-NW 292 4,7 C 4,9 km/h (1 Bft)
23.10.2015 06:50 6,9 C 6,8 C 85 % 1022,2 hPa 0,0 mm 2,6 km/h (1 Bft) W-SW 247 4,6 C 0,0 km/h (0 Bft)
23.10.2015 06:55 6,9 C 6,8 C 86 % 1022,2 hPa 0,0 mm 1,0 km/h (0 Bft) W-NW 292 4,7 C 0,0 km/h (0 Bft)
23.10.2015 07:00 6,9 C 6,8 C 86 % 1022,2 hPa 0,0 mm 0,3 km/h (0 Bft) W-NW 292 4,7 C 0,0 km/h (0 Bft)
23.10.2015 07:05 6,9 C 6,8 C 86 % 1022,2 hPa 0,0 mm 0,0 km/h (0 Bft) W-NW 292 4,7 C 0,0 km/h (0 Bft)
23.10.2015 07:10 6,9 C 6,8 C 86 % 1022,3 hPa 0,0 mm 0,0 km/h (0 Bft) SW 225 4,7 C 0,0 km/h (0 Bft)
23.10.2015 07:15 6,8 C 6,8 C 84 % 1022,3 hPa 0,0 mm 0,0 km/h (0 Bft) S 180 4,3 C 0,0 km/h (0 Bft)
23.10.2015 07:20 6,8 C 6,8 C 84 % 1022,3 hPa 0,0 mm 0,3 km/h (0 Bft) W-SW 247 4,3 C 0,0 km/h (0 Bft)
23.10.2015 07:25 6,8 C 6,8 C 84 % 1022,3 hPa 0,0 mm 0,3 km/h (0 Bft) W 270 4,3 C 0,0 km/h (0 Bft)
23.10.2015 07:30 6,8 C 6,8 C 84 % 1022,6 hPa 0,0 mm 0,0 km/h (0 Bft) S 180 4,3 C 0,0 km/h (0 Bft)
23.10.2015 07:35 6,9 C 6,8 C 87 % 1022,6 hPa 0,0 mm 1,0 km/h (0 Bft) SW 225 4,9 C 0,0 km/h (0 Bft)
23.10.2015 07:40 6,9 C 6,8 C 87 % 1022,6 hPa 0,0 mm 2,3 km/h (1 Bft) SW 225 4,9 C 6,2 km/h (2 Bft)
23.10.2015 07:45 7,0 C 7,0 C 84 % 1022,6 hPa 0,0 mm 3,9 km/h (1 Bft) SW 225 4,5 C 5,4 km/h (1 Bft)
23.10.2015 07:50 7,1 C 7,0 C 87 % 1022,7 hPa 0,0 mm 4,9 km/h (1 Bft) W-SW 247 5,1 C 7,3 km/h (2 Bft)
23.10.2015 07:55 7,1 C 7,1 C 85 % 1022,7 hPa 0,0 mm 5,4 km/h (1 Bft) W-SW 247 4,8 C 7,5 km/h (2 Bft)
23.10.2015 08:00 7,1 C 7,1 C 85 % 1022,7 hPa 0,0 mm 5,7 km/h (1 Bft) W-SW 247 4,8 C 6,2 km/h (2 Bft)
23.10.2015 08:05 7,1 C 7,1 C 85 % 1022,7 hPa 0,0 mm 6,0 km/h (2 Bft) SW 225 4,8 C 8,8 km/h (2 Bft)
23.10.2015 08:10 7,2 C 7,1 C 87 % 1022,7 hPa 0,0 mm 6,0 km/h (2 Bft) SW 225 5,2 C 7,3 km/h (2 Bft)
23.10.2015 08:15 7,2 C 7,1 C 88 % 1022,7 hPa 0,0 mm 5,7 km/h (1 Bft) W-SW 247 5,3 C 7,3 km/h (2 Bft)
23.10.2015 08:19 7,2 C 7,2 C 85 % 1022,7 hPa 0,0 mm 5,7 km/h (1 Bft) SW 225 4,9 C 10,4 km/h (2 Bft)
23.10.2015 08:20 7,2 C 7,2 C 85 % 1022,7 hPa 0,0 mm 5,7 km/h (1 Bft) SW 225 4,9 C 10,4 km/h (2 Bft)
23.10.2015 08:25 7,3 C 7,3 C 85 % 1022,7 hPa 0,0 mm 6,0 km/h (2 Bft) S-SW 202 4,9 C 5,4 km/h (1 Bft)
23.10.2015 08:30 7,3 C 7,4 C 85 % 1022,7 hPa 0,0 mm 6,0 km/h (2 Bft) W-SW 247 4,9 C 7,3 km/h (2 Bft)
23.10.2015 08:35 7,4 C 7,5 C 85 % 1022,7 hPa 0,0 mm 6,0 km/h (2 Bft) O-SO 112 5,0 C 9,1 km/h (2 Bft)
23.10.2015 08:40 7,5 C 7,7 C 85 % 1022,7 hPa 0,0 mm 5,4 km/h (1 Bft) W-SW 247 5,1 C 4,4 km/h (1 Bft)
23.10.2015 08:45 7,6 C 7,8 C 86 % 1022,7 hPa 0,0 mm 4,7 km/h (1 Bft) SW 225 5,4 C 6,0 km/h (2 Bft)
23.10.2015 08:50 7,6 C 7,8 C 86 % 1022,8 hPa 0,0 mm 4,1 km/h (1 Bft) W-SW 247 5,4 C 5,4 km/h (1 Bft)
23.10.2015 08:55 7,6 C 7,8 C 86 % 1022,8 hPa 0,0 mm 3,9 km/h (1 Bft) SW 225 5,4 C 4,9 km/h (1 Bft)
23.10.2015 09:00 7,6 C 7,8 C 86 % 1022,8 hPa 0,0 mm 3,4 km/h (1 Bft) SW 225 5,4 C 2,8 km/h (1 Bft)
23.10.2015 09:05 7,7 C 7,9 C 86 % 1022,8 hPa 0,0 mm 2,8 km/h (1 Bft) SW 225 5,5 C 3,6 km/h (1 Bft)
23.10.2015 09:10 7,7 C 8,0 C 86 % 1022,9 hPa 0,0 mm 2,3 km/h (1 Bft) SW 225 5,5 C 4,7 km/h (1 Bft)
23.10.2015 09:15 7,8 C 8,2 C 86 % 1022,9 hPa 0,0 mm 0,8 km/h (0 Bft) W 270 5,6 C 0,0 km/h (0 Bft)
23.10.2015 09:20 7,9 C 8,4 C 86 % 1022,9 hPa 0,0 mm 0,3 km/h (0 Bft) W 270 5,7 C 0,0 km/h (0 Bft)
23.10.2015 09:25 8,2 C 8,9 C 86 % 1022,9 hPa 0,0 mm 0,3 km/h (0 Bft) W-NW 292 6,0 C 3,6 km/h (1 Bft)
23.10.2015 09:30 8,3 C 9,5 C 86 % 1022,9 hPa 0,0 mm 0,3 km/h (0 Bft) W-NW 292 6,1 C 0,0 km/h (0 Bft)
23.10.2015 09:35 8,5 C 9,8 C 86 % 1022,9 hPa 0,0 mm 1,0 km/h (0 Bft) W 270 6,3 C 3,4 km/h (1 Bft)
23.10.2015 09:40 8,5 C 9,8 C 86 % 1022,9 hPa 0,0 mm 0,8 km/h (0 Bft) NW 315 6,3 C 0,0 km/h (0 Bft)
23.10.2015 09:45 8,5 C 9,6 C 86 % 1022,9 hPa 0,0 mm 0,8 km/h (0 Bft) W-NW 292 6,3 C 3,1 km/h (1 Bft)
23.10.2015 09:50 8,5 C 9,5 C 86 % 1023,3 hPa 0,0 mm 1,3 km/h (1 Bft) NW 315 6,3 C 3,4 km/h (1 Bft)
23.10.2015 09:55 8,6 C 9,5 C 86 % 1023,3 hPa 0,0 mm 2,6 km/h (1 Bft) N-NW 337 6,4 C 4,1 km/h (1 Bft)
23.10.2015 10:00 8,6 C 9,6 C 86 % 1023,3 hPa 0,0 mm 3,4 km/h (1 Bft) W 270 6,4 C 3,6 km/h (1 Bft)
23.10.2015 10:05 8,7 C 9,8 C 86 % 1023,3 hPa 0,0 mm 3,6 km/h (1 Bft) W-NW 292 6,5 C 5,7 km/h (1 Bft)
23.10.2015 10:10 8,8 C 9,9 C 86 % 1023,6 hPa 0,0 mm 4,1 km/h (1 Bft) W 270 6,6 C 4,1 km/h (1 Bft)
23.10.2015 10:15 8,8 C 9,8 C 85 % 1023,6 hPa 0,0 mm 3,9 km/h (1 Bft) N 360 6,4 C 2,6 km/h (1 Bft)
23.10.2015 10:20 8,8 C 9,7 C 85 % 1023,6 hPa 0,0 mm 3,1 km/h (1 Bft) NW 315 6,4 C 4,1 km/h (1 Bft)
23.10.2015 10:25 8,8 C 9,7 C 85 % 1023,6 hPa 0,0 mm 3,1 km/h (1 Bft) NW 315 6,4 C 5,7 km/h (1 Bft)
23.10.2015 10:30 8,8 C 9,8 C 85 % 1023,6 hPa 0,0 mm 3,6 km/h (1 Bft) W-NW 292 6,4 C 4,4 km/h (1 Bft)
23.10.2015 10:35 8,9 C 10,0 C 85 % 1023,6 hPa 0,0 mm 3,9 km/h (1 Bft) W-NW 292 6,5 C 0,0 km/h (0 Bft)
23.10.2015 10:40 9,0 C 10,2 C 85 % 1023,6 hPa 0,0 mm 3,1 km/h (1 Bft) W 270 6,6 C 4,7 km/h (1 Bft)
23.10.2015 10:45 9,1 C 10,5 C 85 % 1023,6 hPa 0,0 mm 2,3 km/h (1 Bft) NW 315 6,7 C 7,3 km/h (2 Bft)
23.10.2015 10:50 9,1 C 10,5 C 85 % 1023,8 hPa 0,0 mm 3,9 km/h (1 Bft) N 360 6,7 C 5,4 km/h (1 Bft)
23.10.2015 10:55 9,3 C 10,6 C 85 % 1023,8 hPa 0,0 mm 3,6 km/h (1 Bft) NW 315 6,9 C 0,0 km/h (0 Bft)
23.10.2015 11:00 9,4 C 10,9 C 85 % 1023,8 hPa 0,0 mm 1,8 km/h (1 Bft) N-NO 22 7,0 C 0,0 km/h (0 Bft)
23.10.2015 11:05 9,4 C 11,3 C 84 % 1023,8 hPa 0,0 mm 1,8 km/h (1 Bft) NW 315 6,8 C 4,4 km/h (1 Bft)
23.10.2015 11:10 9,5 C 11,9 C 84 % 1023,7 hPa 0,0 mm 1,8 km/h (1 Bft) N-NO 22 6,9 C 2,6 km/h (1 Bft)
23.10.2015 11:15 9,9 C 12,8 C 84 % 1023,7 hPa 0,0 mm 0,5 km/h (0 Bft) O-NO 67 7,3 C 2,6 km/h (1 Bft)
23.10.2015 11:20 10,1 C 13,1 C 84 % 1023,7 hPa 0,0 mm 0,3 km/h (0 Bft) O-NO 67 7,5 C 0,0 km/h (0 Bft)
23.10.2015 11:25 9,9 C 12,8 C 83 % 1023,7 hPa 0,0 mm 1,6 km/h (1 Bft) N-NO 22 7,2 C 3,4 km/h (1 Bft)
23.10.2015 11:30 9,9 C 12,3 C 83 % 1023,8 hPa 0,0 mm 2,8 km/h (1 Bft) N-NO 22 7,2 C 6,2 km/h (2 Bft)
23.10.2015 11:35 9,9 C 11,8 C 83 % 1023,8 hPa 0,0 mm 3,4 km/h (1 Bft) N-NW 337 7,2 C 3,1 km/h (1 Bft)
23.10.2015 11:40 9,9 C 11,9 C 83 % 1023,8 hPa 0,0 mm 2,8 km/h (1 Bft) O-NO 67 7,2 C 4,7 km/h (1 Bft)
23.10.2015 11:45 9,9 C 11,8 C 82 % 1023,8 hPa 0,0 mm 2,3 km/h (1 Bft) N-NW 337 7,0 C 4,7 km/h (1 Bft)
23.10.2015 11:50 9,9 C 11,7 C 82 % 1023,8 hPa 0,0 mm 2,3 km/h (1 Bft) N-NW 337 7,0 C 0,0 km/h (0 Bft)
23.10.2015 11:55 10,0 C 11,6 C 82 % 1023,8 hPa 0,0 mm 2,3 km/h (1 Bft) N-NW 337 7,1 C 2,8 km/h (1 Bft)
23.10.2015 12:00 10,1 C 11,6 C 82 % 1023,8 hPa 0,0 mm 2,8 km/h (1 Bft) NW 315 7,2 C 3,6 km/h (1 Bft)
23.10.2015 12:05 10,2 C 11,9 C 81 % 1023,8 hPa 0,0 mm 2,3 km/h (1 Bft) N 360 7,1 C 2,6 km/h (1 Bft)
23.10.2015 12:10 10,3 C 12,1 C 81 % 1023,8 hPa 0,0 mm 1,3 km/h (1 Bft) NO 45 7,2 C 0,0 km/h (0 Bft)
23.10.2015 12:15 10,5 C 12,7 C 81 % 1023,8 hPa 0,0 mm 0,5 km/h (0 Bft) N-NO 22 7,4 C 0,0 km/h (0 Bft)
23.10.2015 12:20 10,6 C 12,9 C 80 % 1023,8 hPa 0,0 mm 1,6 km/h (1 Bft) N-NO 22 7,3 C 6,0 km/h (2 Bft)
23.10.2015 12:25 10,7 C 12,8 C 80 % 1023,8 hPa 0,0 mm 3,6 km/h (1 Bft) NW 315 7,4 C 7,3 km/h (2 Bft)
23.10.2015 12:30 10,7 C 12,9 C 80 % 1023,8 hPa 0,0 mm 3,6 km/h (1 Bft) W-NW 292 7,4 C 0,0 km/h (0 Bft)
23.10.2015 12:35 10,7 C 13,2 C 79 % 1023,8 hPa 0,0 mm 0,8 km/h (0 Bft) NO 45 7,2 C 0,0 km/h (0 Bft)
23.10.2015 12:40 10,8 C 13,2 C 79 % 1023,8 hPa 0,0 mm 0,3 km/h (0 Bft) NW 315 7,3 C 2,6 km/h (1 Bft)
23.10.2015 12:45 10,9 C 13,1 C 79 % 1023,8 hPa 0,0 mm 1,0 km/h (0 Bft) N-NO 22 7,4 C 4,9 km/h (1 Bft)
23.10.2015 12:50 10,9 C 12,8 C 78 % 1023,6 hPa 0,0 mm 2,3 km/h (1 Bft) N-NO 22 7,2 C 5,4 km/h (1 Bft)
23.10.2015 12:55 10,8 C 12,9 C 78 % 1023,6 hPa 0,0 mm 1,8 km/h (1 Bft) O 90 7,1 C 0,0 km/h (0 Bft)
23.10.2015 13:00 10,7 C 12,8 C 78 % 1023,6 hPa 0,0 mm 1,8 km/h (1 Bft) W-NW 292 7,0 C 6,5 km/h (2 Bft)
23.10.2015 13:05 10,7 C 12,7 C 78 % 1023,6 hPa 0,0 mm 3,1 km/h (1 Bft) NW 315 7,0 C 3,4 km/h (1 Bft)
23.10.2015 13:10 10,7 C 12,8 C 78 % 1023,6 hPa 0,0 mm 2,6 km/h (1 Bft) O-NO 67 7,0 C 6,2 km/h (2 Bft)
23.10.2015 13:15 10,8 C 13,0 C 78 % 1023,6 hPa 0,0 mm 2,6 km/h (1 Bft) N-NW 337 7,1 C 7,0 km/h (2 Bft)
23.10.2015 13:20 11,0 C 13,2 C 78 % 1023,6 hPa 0,0 mm 3,4 km/h (1 Bft) O-NO 67 7,3 C 4,7 km/h (1 Bft)
23.10.2015 13:25 10,9 C 12,9 C 78 % 1023,6 hPa 0,0 mm 3,6 km/h (1 Bft) N 360 7,2 C 2,8 km/h (1 Bft)
23.10.2015 13:30 10,7 C 12,6 C 78 % 1023,4 hPa 0,0 mm 4,4 km/h (1 Bft) O 90 7,0 C 4,1 km/h (1 Bft)
23.10.2015 13:35 10,7 C 12,3 C 78 % 1023,4 hPa 0,0 mm 4,7 km/h (1 Bft) NO 45 7,0 C 5,7 km/h (1 Bft)
23.10.2015 13:40 10,6 C 12,1 C 78 % 1023,4 hPa 0,0 mm 3,9 km/h (1 Bft) O-NO 67 6,9 C 4,4 km/h (1 Bft)
23.10.2015 13:45 10,7 C 12,2 C 78 % 1023,4 hPa 0,0 mm 3,1 km/h (1 Bft) O-NO 67 7,0 C 3,9 km/h (1 Bft)
23.10.2015 13:50 10,7 C 12,2 C 78 % 1023,3 hPa 0,0 mm 2,8 km/h (1 Bft) NO 45 7,0 C 3,4 km/h (1 Bft)
23.10.2015 13:55 10,8 C 12,2 C 78 % 1023,3 hPa 0,0 mm 3,9 km/h (1 Bft) NO 45 7,1 C 6,2 km/h (2 Bft)
23.10.2015 14:00 10,8 C 12,2 C 77 % 1023,3 hPa 0,0 mm 3,6 km/h (1 Bft) N-NO 22 6,9 C 4,4 km/h (1 Bft)
23.10.2015 14:05 10,9 C 12,2 C 77 % 1023,3 hPa 0,0 mm 4,4 km/h (1 Bft) N-NO 22 7,0 C 9,6 km/h (2 Bft)
23.10.2015 14:10 10,8 C 12,1 C 77 % 1023,3 hPa 0,0 mm 5,2 km/h (1 Bft) O-NO 67 6,9 C 4,4 km/h (1 Bft)
23.10.2015 14:15 10,9 C 12,2 C 78 % 1023,3 hPa 0,0 mm 5,2 km/h (1 Bft) O 90 7,2 C 10,9 km/h (2 Bft)
23.10.2015 14:20 10,9 C 12,3 C 78 % 1023,3 hPa 0,0 mm 4,4 km/h (1 Bft) O-NO 67 7,2 C 7,3 km/h (2 Bft)
23.10.2015 14:22 10,9 C 12,3 C 78 % 1023,3 hPa 0,0 mm 4,4 km/h (1 Bft) O-NO 67 7,2 C 7,3 km/h (2 Bft)
23.10.2015 14:25 11,0 C 12,6 C 77 % 1023,3 hPa 0,0 mm 4,4 km/h (1 Bft) O-NO 67 7,1 C 6,2 km/h (2 Bft)
23.10.2015 14:30 11,0 C 12,8 C 77 % 1023,0 hPa 0,0 mm 4,7 km/h (1 Bft) O-NO 67 7,1 C 6,2 km/h (2 Bft)
23.10.2015 14:35 11,0 C 12,8 C 77 % 1023,0 hPa 0,0 mm 5,4 km/h (1 Bft) NO 45 7,1 C 9,8 km/h (2 Bft)
23.10.2015 14:40 11,1 C 12,7 C 77 % 1023,0 hPa 0,0 mm 6,2 km/h (2 Bft) O-NO 67 7,2 C 8,0 km/h (2 Bft)
23.10.2015 14:45 11,0 C 12,6 C 77 % 1023,0 hPa 0,0 mm 6,2 km/h (2 Bft) N-NO 22 7,1 C 7,8 km/h (2 Bft)
23.10.2015 14:50 11,0 C 12,5 C 77 % 1022,8 hPa 0,0 mm 5,7 km/h (1 Bft) O-NO 67 7,1 C 12,2 km/h (2 Bft)
23.10.2015 14:55 10,8 C 12,0 C 78 % 1022,8 hPa 0,0 mm 7,0 km/h (2 Bft) NO 45 7,1 C 7,3 km/h (2 Bft)
23.10.2015 15:00 10,7 C 11,8 C 78 % 1022,8 hPa 0,0 mm 7,8 km/h (2 Bft) O-NO 67 7,0 C 14,0 km/h (3 Bft)
23.10.2015 15:05 10,7 C 11,8 C 78 % 1022,8 hPa 0,0 mm 7,0 km/h (2 Bft) O-NO 67 7,0 C 9,3 km/h (2 Bft)
23.10.2015 15:10 10,7 C 11,9 C 78 % 1022,9 hPa 0,0 mm 6,2 km/h (2 Bft) NW 315 7,0 C 8,0 km/h (2 Bft)
23.10.2015 15:15 10,7 C 11,8 C 78 % 1022,9 hPa 0,0 mm 6,0 km/h (2 Bft) O-NO 67 7,0 C 6,7 km/h (2 Bft)
23.10.2015 15:20 10,6 C 11,6 C 78 % 1022,9 hPa 0,0 mm 6,2 km/h (2 Bft) N-NO 22 6,9 C 7,3 km/h (2 Bft)
23.10.2015 15:25 10,6 C 11,6 C 78 % 1022,9 hPa 0,0 mm 6,7 km/h (2 Bft) NO 45 6,9 C 9,8 km/h (2 Bft)
23.10.2015 15:30 10,6 C 11,6 C 78 % 1022,8 hPa 0,0 mm 7,5 km/h (2 Bft) NO 45 6,9 C 6,7 km/h (2 Bft)
23.10.2015 15:35 10,6 C 11,6 C 78 % 1022,8 hPa 0,0 mm 7,0 km/h (2 Bft) O-NO 67 6,9 C 9,3 km/h (2 Bft)
23.10.2015 15:40 10,6 C 11,6 C 78 % 1022,8 hPa 0,0 mm 6,2 km/h (2 Bft) O 90 6,9 C 6,5 km/h (2 Bft)
23.10.2015 15:45 10,6 C 11,6 C 78 % 1022,8 hPa 0,0 mm 5,4 km/h (1 Bft) O-NO 67 6,9 C 7,5 km/h (2 Bft)
23.10.2015 15:50 10,6 C 11,4 C 78 % 1022,8 hPa 0,0 mm 6,0 km/h (2 Bft) O-SO 112 6,9 C 8,8 km/h (2 Bft)
23.10.2015 15:55 10,6 C 11,5 C 79 % 1022,8 hPa 0,0 mm 6,0 km/h (2 Bft) O 90 7,1 C 9,1 km/h (2 Bft)
23.10.2015 16:00 10,6 C 11,6 C 79 % 1022,8 hPa 0,0 mm 5,7 km/h (1 Bft) O-NO 67 7,1 C 9,8 km/h (2 Bft)
23.10.2015 16:05 10,7 C 11,7 C 79 % 1022,8 hPa 0,0 mm 4,9 km/h (1 Bft) S 180 7,2 C 4,9 km/h (1 Bft)
23.10.2015 16:10 10,7 C 11,7 C 78 % 1022,6 hPa 0,0 mm 4,9 km/h (1 Bft) O-NO 67 7,0 C 9,8 km/h (2 Bft)
23.10.2015 16:15 10,7 C 11,6 C 78 % 1022,6 hPa 0,0 mm 5,2 km/h (1 Bft) O-NO 67 7,0 C 5,2 km/h (1 Bft)
23.10.2015 16:20 10,6 C 11,4 C 78 % 1022,6 hPa 0,0 mm 5,4 km/h (1 Bft) O-SO 112 6,9 C 5,4 km/h (1 Bft)
23.10.2015 16:25 10,5 C 11,2 C 78 % 1022,6 hPa 0,0 mm 6,7 km/h (2 Bft) O-SO 112 6,8 C 16,1 km/h (3 Bft)
23.10.2015 16:30 10,5 C 11,1 C 78 % 1022,5 hPa 0,0 mm 6,7 km/h (2 Bft) NO 45 6,8 C 13,7 km/h (3 Bft)
23.10.2015 16:35 10,4 C 11,0 C 78 % 1022,5 hPa 0,0 mm 7,0 km/h (2 Bft) O-NO 67 6,7 C 7,8 km/h (2 Bft)
23.10.2015 16:40 10,4 C 10,9 C 78 % 1022,5 hPa 0,0 mm 5,7 km/h (1 Bft) N-NO 22 6,7 C 5,7 km/h (1 Bft)
23.10.2015 16:45 10,4 C 10,9 C 78 % 1022,5 hPa 0,0 mm 4,4 km/h (1 Bft) O-SO 112 6,7 C 6,2 km/h (2 Bft)
23.10.2015 16:50 10,4 C 10,9 C 78 % 1022,3 hPa 0,0 mm 5,4 km/h (1 Bft) O-NO 67 6,7 C 7,0 km/h (2 Bft)
23.10.2015 16:55 10,3 C 10,7 C 78 % 1022,3 hPa 0,0 mm 6,0 km/h (2 Bft) NO 45 6,6 C 8,0 km/h (2 Bft)
23.10.2015 17:00 10,3 C 10,7 C 78 % 1022,3 hPa 0,0 mm 5,7 km/h (1 Bft) O-NO 67 6,6 C 0,0 km/h (0 Bft)
23.10.2015 17:05 10,3 C 10,6 C 78 % 1022,3 hPa 0,0 mm 3,6 km/h (1 Bft) SO 135 6,6 C 5,4 km/h (1 Bft)
23.10.2015 17:10 10,3 C 10,6 C 78 % 1022,2 hPa 0,0 mm 3,6 km/h (1 Bft) N-NO 22 6,6 C 7,5 km/h (2 Bft)
23.10.2015 17:15 10,3 C 10,5 C 79 % 1022,2 hPa 0,0 mm 4,7 km/h (1 Bft) O-NO 67 6,8 C 3,9 km/h (1 Bft)
23.10.2015 17:20 10,2 C 10,5 C 79 % 1022,2 hPa 0,0 mm 4,9 km/h (1 Bft) NO 45 6,7 C 12,2 km/h (2 Bft)
23.10.2015 17:25 10,2 C 10,3 C 79 % 1022,2 hPa 0,0 mm 5,4 km/h (1 Bft) NO 45 6,7 C 6,0 km/h (2 Bft)
23.10.2015 17:30 10,1 C 10,2 C 79 % 1022,2 hPa 0,0 mm 5,4 km/h (1 Bft) NO 45 6,6 C 9,8 km/h (2 Bft)
23.10.2015 17:35 10,0 C 10,1 C 79 % 1022,2 hPa 0,0 mm 5,2 km/h (1 Bft) NO 45 6,5 C 5,7 km/h (1 Bft)
23.10.2015 17:40 10,0 C 10,0 C 80 % 1022,2 hPa 0,0 mm 6,0 km/h (2 Bft) NO 45 6,7 C 10,9 km/h (2 Bft)
23.10.2015 17:45 9,9 C 9,9 C 80 % 1022,2 hPa 0,0 mm 5,2 km/h (1 Bft) O-NO 67 6,6 C 5,2 km/h (1 Bft)
23.10.2015 17:50 9,8 C 9,9 C 79 % 1022,0 hPa 0,0 mm 4,7 km/h (1 Bft) O-NO 67 6,3 C 4,1 km/h (1 Bft)
23.10.2015 17:55 9,8 C 9,8 C 81 % 1022,0 hPa 0,0 mm 3,4 km/h (1 Bft) NO 45 6,7 C 2,6 km/h (1 Bft)
23.10.2015 18:00 9,7 C 9,7 C 81 % 1022,0 hPa 0,0 mm 3,4 km/h (1 Bft) O-NO 67 6,6 C 2,8 km/h (1 Bft)
23.10.2015 18:05 9,6 C 9,6 C 81 % 1022,0 hPa 0,0 mm 3,9 km/h (1 Bft) NO 45 6,5 C 0,0 km/h (0 Bft)
23.10.2015 18:10 9,6 C 9,6 C 82 % 1022,2 hPa 0,0 mm 3,4 km/h (1 Bft) N-NO 22 6,7 C 0,0 km/h (0 Bft)
23.10.2015 18:15 9,5 C 9,5 C 82 % 1022,2 hPa 0,0 mm 2,1 km/h (1 Bft) NO 45 6,6 C 6,2 km/h (2 Bft)
23.10.2015 18:20 9,5 C 9,4 C 82 % 1022,2 hPa 0,0 mm 2,6 km/h (1 Bft) O-NO 67 6,6 C 6,0 km/h (2 Bft)
23.10.2015 18:25 9,4 C 9,3 C 82 % 1022,2 hPa 0,0 mm 2,6 km/h (1 Bft) O 90 6,5 C 3,4 km/h (1 Bft)
23.10.2015 18:30 9,3 C 9,3 C 82 % 1022,2 hPa 0,0 mm 1,0 km/h (0 Bft) O-NO 67 6,4 C 0,0 km/h (0 Bft)
23.10.2015 18:35 9,3 C 9,3 C 82 % 1022,2 hPa 0,0 mm 0,8 km/h (0 Bft) NO 45 6,4 C 3,9 km/h (1 Bft)
23.10.2015 18:40 9,2 C 9,2 C 82 % 1022,2 hPa 0,0 mm 0,8 km/h (0 Bft) O-NO 67 6,3 C 2,6 km/h (1 Bft)
23.10.2015 18:45 9,2 C 9,1 C 83 % 1022,2 hPa 0,0 mm 0,8 km/h (0 Bft) S 180 6,5 C 0,0 km/h (0 Bft)
23.10.2015 18:50 9,1 C 9,1 C 83 % 1022,4 hPa 0,0 mm 1,3 km/h (1 Bft) N-NO 22 6,4 C 0,0 km/h (0 Bft)
23.10.2015 18:55 9,1 C 9,0 C 83 % 1022,4 hPa 0,0 mm 1,3 km/h (1 Bft) O-NO 67 6,4 C 0,0 km/h (0 Bft)
23.10.2015 19:00 9,1 C 9,0 C 83 % 1022,4 hPa 0,0 mm 1,6 km/h (1 Bft) O 90 6,4 C 4,4 km/h (1 Bft)
23.10.2015 19:05 9,1 C 9,0 C 83 % 1022,4 hPa 0,0 mm 1,6 km/h (1 Bft) N-NO 22 6,4 C 0,0 km/h (0 Bft)
23.10.2015 19:10 9,1 C 9,0 C 83 % 1022,4 hPa 0,0 mm 1,3 km/h (1 Bft) NO 45 6,4 C 4,7 km/h (1 Bft)
23.10.2015 19:15 9,1 C 9,0 C 84 % 1022,4 hPa 0,0 mm 1,8 km/h (1 Bft) NO 45 6,5 C 2,8 km/h (1 Bft)
23.10.2015 19:20 9,0 C 9,0 C 84 % 1022,4 hPa 0,0 mm 2,6 km/h (1 Bft) O-SO 112 6,4 C 5,2 km/h (1 Bft)
23.10.2015 19:25 9,1 C 9,0 C 84 % 1022,4 hPa 0,0 mm 2,6 km/h (1 Bft) NO 45 6,5 C 3,6 km/h (1 Bft)
23.10.2015 19:30 9,1 C 9,0 C 84 % 1022,2 hPa 0,0 mm 2,8 km/h (1 Bft) O-NO 67 6,5 C 2,8 km/h (1 Bft)
23.10.2015 19:35 9,0 C 9,0 C 84 % 1022,2 hPa 0,0 mm 2,3 km/h (1 Bft) N-NO 22 6,4 C 7,8 km/h (2 Bft)
23.10.2015 19:40 9,0 C 9,0 C 85 % 1022,2 hPa 0,0 mm 2,6 km/h (1 Bft) O 90 6,6 C 5,7 km/h (1 Bft)
23.10.2015 19:45 9,0 C 9,0 C 85 % 1022,2 hPa 0,0 mm 2,3 km/h (1 Bft) O-NO 67 6,6 C 0,0 km/h (0 Bft)
23.10.2015 19:50 8,9 C 8,9 C 85 % 1022,1 hPa 0,0 mm 1,6 km/h (1 Bft) O-SO 112 6,5 C 0,0 km/h (0 Bft)
23.10.2015 19:55 8,9 C 8,9 C 83 % 1022,1 hPa 0,0 mm 1,0 km/h (0 Bft) O-NO 67 6,2 C 0,0 km/h (0 Bft)
23.10.2015 20:00 8,9 C 8,9 C 85 % 1022,1 hPa 0,0 mm 1,0 km/h (0 Bft) SO 135 6,5 C 0,0 km/h (0 Bft)
23.10.2015 20:05 8,9 C 8,9 C 86 % 1022,1 hPa 0,0 mm 1,6 km/h (1 Bft) NO 45 6,7 C 0,0 km/h (0 Bft)
23.10.2015 20:10 8,9 C 8,8 C 86 % 1022,0 hPa 0,0 mm 0,8 km/h (0 Bft) O-SO 112 6,7 C 0,0 km/h (0 Bft)
23.10.2015 20:15 8,9 C 8,8 C 86 % 1022,0 hPa 0,0 mm 0,8 km/h (0 Bft) O-NO 67 6,7 C 0,0 km/h (0 Bft)
23.10.2015 20:20 8,9 C 8,8 C 86 % 1022,0 hPa 0,0 mm 1,3 km/h (1 Bft) S-SO 157 6,7 C 0,0 km/h (0 Bft)
23.10.2015 20:23 8,9 C 8,8 C 86 % 1022,0 hPa 0,0 mm 1,3 km/h (1 Bft) S-SO 157 6,7 C 0,0 km/h (0 Bft)
23.10.2015 20:25 8,9 C 8,9 C 86 % 1022,0 hPa 0,0 mm 1,0 km/h (0 Bft) NO 45 6,7 C 3,1 km/h (1 Bft)
23.10.2015 20:30 8,9 C 8,9 C 86 % 1021,7 hPa 0,0 mm 1,8 km/h (1 Bft) O-NO 67 6,7 C 5,4 km/h (1 Bft)
23.10.2015 20:35 8,9 C 8,9 C 87 % 1021,7 hPa 0,0 mm 3,6 km/h (1 Bft) O-NO 67 6,9 C 5,4 km/h (1 Bft)
23.10.2015 20:40 8,9 C 8,9 C 87 % 1021,7 hPa 0,0 mm 3,1 km/h (1 Bft) O-NO 67 6,9 C 7,8 km/h (2 Bft)
23.10.2015 20:45 8,9 C 8,8 C 87 % 1021,7 hPa 0,0 mm 2,6 km/h (1 Bft) N 360 6,9 C 6,0 km/h (2 Bft)
23.10.2015 20:50 8,9 C 8,8 C 87 % 1021,5 hPa 0,0 mm 2,3 km/h (1 Bft) N-NO 22 6,9 C 0,0 km/h (0 Bft)
23.10.2015 20:55 8,9 C 8,8 C 87 % 1021,5 hPa 0,0 mm 1,8 km/h (1 Bft) N-NO 22 6,9 C 4,9 km/h (1 Bft)
23.10.2015 21:00 8,9 C 8,8 C 87 % 1021,5 hPa 0,0 mm 1,6 km/h (1 Bft) NO 45 6,9 C 0,0 km/h (0 Bft)
23.10.2015 21:05 8,8 C 8,8 C 84 % 1021,5 hPa 0,0 mm 3,1 km/h (1 Bft) O-NO 67 6,2 C 0,0 km/h (0 Bft)
23.10.2015 21:10 8,8 C 8,8 C 84 % 1021,6 hPa 0,0 mm 2,3 km/h (1 Bft) NO 45 6,2 C 5,4 km/h (1 Bft)
23.10.2015 21:15 8,8 C 8,8 C 84 % 1021,6 hPa 0,0 mm 0,8 km/h (0 Bft) NO 45 6,2 C 4,9 km/h (1 Bft)
23.10.2015 21:20 8,8 C 8,8 C 85 % 1021,6 hPa 0,0 mm 0,8 km/h (0 Bft) O-NO 67 6,4 C 0,0 km/h (0 Bft)
23.10.2015 21:25 8,8 C 8,8 C 88 % 1021,6 hPa 0,0 mm 0,3 km/h (0 Bft) O-NO 67 6,9 C 0,0 km/h (0 Bft)
23.10.2015 21:30 8,8 C 8,8 C 85 % 1021,4 hPa 0,0 mm 0,3 km/h (0 Bft) O 90 6,4 C 0,0 km/h (0 Bft)
23.10.2015 21:35 8,8 C 8,8 C 85 % 1021,4 hPa 0,0 mm 0,8 km/h (0 Bft) O-NO 67 6,4 C 0,0 km/h (0 Bft)
23.10.2015 21:40 8,8 C 8,8 C 85 % 1021,4 hPa 0,0 mm 0,5 km/h (0 Bft) O-NO 67 6,4 C 0,0 km/h (0 Bft)
23.10.2015 21:45 8,8 C 8,8 C 85 % 1021,4 hPa 0,0 mm 0,0 km/h (0 Bft) NO 45 6,4 C 0,0 km/h (0 Bft)
23.10.2015 21:50 8,8 C 8,8 C 88 % 1021,2 hPa 0,0 mm 0,5 km/h (0 Bft) O-NO 67 6,9 C 3,9 km/h (1 Bft)
23.10.2015 21:55 8,8 C 8,8 C 88 % 1021,2 hPa 0,0 mm 1,6 km/h (1 Bft) O-SO 112 6,9 C 0,0 km/h (0 Bft)
23.10.2015 22:00 8,8 C 8,7 C 88 % 1021,2 hPa 0,0 mm 1,6 km/h (1 Bft) O-NO 67 6,9 C 0,0 km/h (0 Bft)
23.10.2015 22:05 8,7 C 8,7 C 88 % 1021,2 hPa 0,0 mm 0,0 km/h (0 Bft) O-NO 67 6,8 C 0,0 km/h (0 Bft)
23.10.2015 22:10 8,7 C 8,7 C 88 % 1021,1 hPa 0,0 mm 0,3 km/h (0 Bft) O-NO 67 6,8 C 0,0 km/h (0 Bft)
23.10.2015 22:15 8,6 C 8,5 C 88 % 1021,1 hPa 0,0 mm 0,3 km/h (0 Bft) NO 45 6,7 C 0,0 km/h (0 Bft)
23.10.2015 22:20 8,5 C 8,5 C 88 % 1021,1 hPa 0,0 mm 0,0 km/h (0 Bft) O-NO 67 6,6 C 0,0 km/h (0 Bft)
23.10.2015 22:25 8,5 C 8,5 C 85 % 1021,1 hPa 0,0 mm 0,0 km/h (0 Bft) O-NO 67 6,1 C 0,0 km/h (0 Bft)
23.10.2015 22:30 8,5 C 8,4 C 88 % 1020,8 hPa 0,0 mm 0,0 km/h (0 Bft) O-NO 67 6,6 C 0,0 km/h (0 Bft)
23.10.2015 22:35 8,5 C 8,4 C 88 % 1020,8 hPa 0,0 mm 0,0 km/h (0 Bft) O-NO 67 6,6 C 0,0 km/h (0 Bft)
23.10.2015 22:40 8,5 C 8,4 C 88 % 1020,8 hPa 0,0 mm 0,0 km/h (0 Bft) NO 45 6,6 C 0,0 km/h (0 Bft)
23.10.2015 22:45 8,5 C 8,4 C 88 % 1020,8 hPa 0,0 mm 1,6 km/h (1 Bft) O-NO 67 6,6 C 3,9 km/h (1 Bft)
23.10.2015 22:50 8,4 C 8,4 C 88 % 1020,8 hPa 0,0 mm 2,8 km/h (1 Bft) N-NO 22 6,5 C 6,5 km/h (2 Bft)
23.10.2015 22:55 8,3 C 8,3 C 88 % 1020,8 hPa 0,0 mm 3,9 km/h (1 Bft) O-SO 112 6,4 C 4,7 km/h (1 Bft)
23.10.2015 23:00 8,2 C 8,2 C 88 % 1020,8 hPa 0,0 mm 3,6 km/h (1 Bft) NO 45 6,3 C 2,8 km/h (1 Bft)
23.10.2015 23:05 8,1 C 8,1 C 88 % 1020,8 hPa 0,0 mm 1,3 km/h (1 Bft) W-SW 247 6,2 C 0,0 km/h (0 Bft)
23.10.2015 23:10 8,1 C 8,0 C 88 % 1020,9 hPa 0,0 mm 0,5 km/h (0 Bft) N-NO 22 6,2 C 0,0 km/h (0 Bft)
23.10.2015 23:15 8,0 C 8,0 C 88 % 1020,9 hPa 0,0 mm 0,5 km/h (0 Bft) NO 45 6,1 C 0,0 km/h (0 Bft)
23.10.2015 23:20 7,9 C 7,9 C 86 % 1020,9 hPa 0,0 mm 1,3 km/h (1 Bft) NO 45 5,7 C 0,0 km/h (0 Bft)
23.10.2015 23:25 7,9 C 7,9 C 89 % 1020,9 hPa 0,0 mm 2,1 km/h (1 Bft) O 90 6,2 C 5,4 km/h (1 Bft)
23.10.2015 23:30 7,7 C 7,7 C 89 % 1020,8 hPa 0,0 mm 3,1 km/h (1 Bft) O-NO 67 6,0 C 3,6 km/h (1 Bft)
23.10.2015 23:35 7,7 C 7,7 C 89 % 1020,8 hPa 0,0 mm 3,1 km/h (1 Bft) O-SO 112 6,0 C 3,6 km/h (1 Bft)
23.10.2015 23:40 7,6 C 7,6 C 89 % 1020,8 hPa 0,0 mm 1,8 km/h (1 Bft) O-NO 67 5,9 C 0,0 km/h (0 Bft)
23.10.2015 23:45 7,6 C 7,5 C 89 % 1020,8 hPa 0,0 mm 0,8 km/h (0 Bft) SO 135 5,9 C 0,0 km/h (0 Bft)
23.10.2015 23:50 7,6 C 7,5 C 89 % 1020,6 hPa 0,0 mm 0,3 km/h (0 Bft) O-SO 112 5,9 C 3,6 km/h (1 Bft)
23.10.2015 23:55 7,5 C 7,5 C 89 % 1020,6 hPa 0,0 mm 1,0 km/h (0 Bft) O 90 5,8 C 3,1 km/h (1 Bft)
_ Min-Zeit 00:45 00:20 14:50 23:55 - 22:40 - - 00:00 23:45
Minimum _ 6,7 C 6,6 C 77 % 1020,6 hPa - 0,0 km/h (0 Bft) - - 3,1 C 0,0 km/h (0 Bft)
_ Max-Zeit 14:40 13:20 23:55 12:45 23:55 15:00 - - 11:20 16:25
Maximum _ 11,1 C 13,2 C 89 % 1023,8 hPa 0,0 mm 7,8 km/h
O-NO (2 Bft)
- - 7,5 C 16,1 km/h
O-SO (3 Bft)
Durchschnitt _ 8,6 C 9,1 C 82 % 1022,2 hPa #0,0 mm 2,5 km/h (1 Bft) O-NO - 5,8 C 3,6 km/h (1 Bft)